This demonstration page uses our WeatherBlox Daily Observations layout. Learn more.

Left ArrowRight Arrow

36.17497, -115.13722

Hourly Observations for June 7, 2021

Temp ( °F °C ) Dew Point ( °F °C ) Humidity (%) Winds ( mph kmh ) Pressure ( in mb ) Visibility ( mi km ) Precip ( " mm )
12:53 am 00:53 Clear 88 31.1 29 -1.7 12 12 SSE 12 19 29.60 1003 10 16 N/A
1:53 am 01:53 Clear 87 30.6 31 -0.6 13 13 S 13 20 29.60 1003 10 16 N/A
2:53 am 02:53 Clear 86 30 32 undefined 14 14 S 16 26 29.61 1003 10 16 N/A
3:53 am 03:53 Clear 84 28.9 32 undefined 15 15 SSE 12 19 29.61 1003 10 16 N/A
4:53 am 04:53 Clear 83 28.3 33 0.6 17 17 SSE 15 24 29.62 1003 10 16 N/A
5:53 am 05:53 Sunny 82 27.8 33 0.6 17 17 SE 13 20 29.64 1004 10 16 N/A
6:53 am 06:53 Sunny 83 28.3 38 3.3 20 20 ESE 12 19 29.65 1004 10 16 N/A
7:53 am 07:53 Sunny 84 28.9 40 4.4 21 21 E 13 20 29.66 1005 10 16 N/A
8:53 am 08:53 Sunny 86 30 40 4.4 20 20 E 14 22 29.68 1005 10 16 N/A
9:53 am 09:53 Sunny 89 31.7 38 3.3 16 16 ESE 13 20 29.67 1005 10 16 N/A
10:53 am 10:53 Sunny 91 32.8 37 2.8 15 15 SE 22 35 29.67 1005 10 16 N/A
11:53 am 11:53 Sunny 91 32.8 36 2.2 14 14 ESE 15 24 29.68 1005 10 16 N/A
12:53 pm 12:53 Sunny 95 35 34 1.1 12 12 SSE 20 31 29.66 1004 10 16 N/A
1:53 pm 13:53 Sunny 97 36.1 28 -2.2 9 9 SE 21 33 29.63 1004 10 16 N/A
2:53 pm 14:53 Sunny 96 35.6 25 -3.9 8 8 ESE 16 26 29.61 1003 10 16 N/A
3:53 pm 15:53 Sunny 98 36.7 24 -4.4 7 7 SSE 18 30 29.59 1002 10 16 N/A
4:53 pm 16:53 Sunny 98 36.7 22 -5.6 6 6 S 18 30 29.58 1002 10 16 N/A
5:53 pm 17:53 Sunny 95 35 22 -5.6 7 7 S 20 31 29.58 1002 10 16 N/A
6:53 pm 18:53 Sunny 94 34.4 21 -6.1 7 7 S 20 31 29.57 1002 10 16 N/A
7:53 pm 19:53 Sunny 91 32.8 25 -3.9 9 9 S 20 31 29.58 1002 10 16 N/A
8:53 pm 20:53 Clear 89 31.7 28 -2.2 11 11 SW 12 19 29.60 1002 10 16 N/A
9:53 pm 21:53 Clear 87 30.6 29 -1.7 12 12 SSW 6 9 29.63 1003 10 16 N/A
10:53 pm 22:53 Clear 85 29.4 29 -1.7 13 13 S 8 13 29.63 1003 10 16 N/A
11:53 pm 23:53 Clear 83 28.3 26 -3.3 12 12 SW 8 13 29.65 1004 10 16 N/A

Powered by AerisWeather